Columbia, SC

1:25 PM EDT on July 28, 2016 (GMT -0400)
Columbia Owens Downtown

Weather History for KCUB - January, 2014

Change the Weather History Date:

Wednesday, January 1, 2014

  Actual Average Record
Temperature  
Mean Temperature 44 °F 46 °F  
Max Temperature 51 °F 56 °F 73 °F (2012)
Min Temperature 37 °F 36 °F 23 °F (2001)
Degree Days  
Heating Degree Days 21 20  
Month to date heating degree days 21 20  
Since 1 July heating degree days 855 920  
Cooling Degree Days 0 0  
Month to date cooling degree days 0 0  
Year to date cooling degree days 0 0  
Moisture  
Dew Point 37 °F    
Average Humidity 79    
Maximum Humidity 92    
Minimum Humidity 50    
Precipitation  
Precipitation 0.01 in 0.14 in 0.28 in (2006)
Month to date precipitation 0.01 0.14  
Year to date precipitation 0.01 0.14  
Sea Level Pressure  
Sea Level Pressure 30.33 in    
Wind  
Wind Speed 0 mph (East)    
Max Wind Speed 5 mph    
Max Gust Speed 7 mph    
Visibility 7 miles    
Events Rain    
T = Trace of Precipitation, MM = Missing Value Source: NWS Daily Summary

Daily Weather History Graph

Daily Weather History Graph

Search for Another Location

Airport or City:

Trip Planner

Search our weather history database for the weather conditions in past years. The results will help you decide how hot, cold, wet, or windy it might be!

Date:

Astronomy

Jan. 01, 2014 Rise Set
Actual Time 7:29 AM EST 5:25 PM EST
Civil Twilight 7:01 AM EST 5:53 PM EST
Nautical Twilight 6:30 AM EST 6:24 PM EST
Astronomical Twilight 6:00 AM EST 6:55 PM EST
Moon 7:21 AM EST (1/1) 6:05 PM EST (1/1)
Length of Visible Light 10h 51m
Length of Day
9h 56m
New Moon, 0% of the Moon is Illuminated
Jan 1
New Moon
Jan 7
First Quarter
Jan 15
Full
Jan 24
Last Quarter
Jan 30
New

Hourly Weather History & Observations

Time (EST) Temp. Windchill Dew Point Humidity Pressure Visibility Wind Dir Wind Speed Gust Speed Precip Events Conditions
12:21 AM 37.9 °F - 35.1 °F 89% 30.37 in 2.0 mi Calm Calm - N/A   Clear
12:37 AM 37.9 °F - 35.1 °F 89% 30.37 in 3.0 mi Calm Calm - N/A   Clear
12:53 AM 37.9 °F - 35.1 °F 89% 30.37 in 3.0 mi Calm Calm - N/A   Clear
1:53 AM 37.0 °F - 35.1 °F 93% 30.38 in 2.5 mi Calm Calm - N/A   Clear
2:04 AM 37.9 °F - 35.1 °F 89% 30.38 in 3.0 mi Calm Calm - N/A   Clear
2:43 AM 37.9 °F - 35.1 °F 89% 30.38 in 2.5 mi Calm Calm - N/A   Clear
2:53 AM 37.9 °F - 35.1 °F 89% 30.39 in 2.5 mi Calm Calm - N/A   Clear
3:53 AM 37.9 °F - 36.0 °F 93% 30.38 in 2.5 mi Calm Calm - N/A   Clear
4:12 AM 37.9 °F - 35.1 °F 89% 30.36 in 3.0 mi Calm Calm - N/A   Clear
4:53 AM 37.9 °F - 36.0 °F 93% 30.36 in 4.0 mi Calm Calm - N/A   Clear
5:53 AM 39.0 °F - 36.0 °F 89% 30.37 in 4.0 mi Calm Calm - N/A   Clear
6:53 AM 39.0 °F - 36.0 °F 89% 30.38 in 4.0 mi Calm Calm - N/A   Clear
7:53 AM 39.0 °F 36.8 °F 35.1 °F 86% 30.39 in 4.0 mi East 3.5 mph - N/A   Clear
8:53 AM 41.0 °F - 35.1 °F 79% 30.40 in 6.0 mi Calm Calm - N/A   Haze
9:53 AM 44.1 °F - 34.0 °F 68% 30.41 in 10.0 mi Calm Calm - N/A   Clear
10:53 AM 46.9 °F - 35.1 °F 63% 30.38 in 10.0 mi Calm Calm - N/A   Clear
11:53 AM 48.9 °F - 34.0 °F 56% 30.37 in 10.0 mi Calm Calm - N/A   Clear
12:53 PM 51.1 °F - 33.1 °F 50% 30.32 in 10.0 mi Calm Calm - N/A   Clear
1:53 PM 51.1 °F - 34.0 °F 52% 30.30 in 10.0 mi East 3.5 mph - N/A   Mostly Cloudy
2:53 PM 50.0 °F - 36.0 °F 59% 30.28 in 10.0 mi Calm Calm - N/A   Overcast
3:53 PM 48.9 °F - 39.0 °F 69% 30.29 in 10.0 mi Calm Calm - 0.00 in Rain Light Rain
4:53 PM 48.0 °F - 37.9 °F 68% 30.27 in 10.0 mi Calm Calm - 0.00 in   Overcast
5:53 PM 48.0 °F - 39.0 °F 71% 30.26 in 10.0 mi Calm Calm - N/A   Overcast
6:53 PM 46.9 °F - 41.0 °F 80% 30.25 in 10.0 mi Calm Calm - N/A   Mostly Cloudy
7:53 PM 46.9 °F - 39.9 °F 77% 30.23 in 10.0 mi Calm Calm - N/A   Mostly Cloudy
8:53 PM 46.9 °F - 39.9 °F 77% 30.23 in 10.0 mi Calm Calm - N/A   Mostly Cloudy
9:53 PM 46.9 °F - 39.0 °F 74% 30.22 in 10.0 mi Calm Calm - N/A   Overcast
10:53 PM 46.0 °F - 39.9 °F 79% 30.20 in 10.0 mi Calm Calm - N/A   Overcast
11:53 PM 46.0 °F - 43.0 °F 89% 30.16 in 10.0 mi Calm Calm - 0.01 in   Overcast